Flag for U.S.A. Weather past 2 weeks in Coeur d'Alene, Idaho, U.S.A.

50 °F


Feels Like: 50 °F
Forecast: 47 / 69 °F
Wind: No wind

Location: Coeur d'Alene Weather Reporting System

Current Time: Oct 13, 2015 at 7:46:39 AM

Latest Report: Oct 13, 2015 at 7:15 AM

Visibility: 10 mi

Pressure: 30.11 "Hg (27.82 "Hg at 655m altitude)

Humidity: 71%

Dew point: 41 °F

Location of Coeur d'AleneLocation

Historic Weather in Coeur d'Alene — Graph


Coeur d'Alene temperature yesterday

Maximum temperature yesterday: 72 °F (at 3:15 PM)
Minimum temperature yesterday: 39 °F (at 3:15 AM)
Average temperature yesterday: 54 °F

Past Weeks' High & Low Weather Summary

High79 °F (Sep 30, 2:35 PM)94% (Oct 7, 7:15 PM)30.28 "Hg (Oct 7, 7:15 PM)
Low39 °F (Sep 29, 5:15 AM)10% (Oct 1, 1:35 AM)29.62 "Hg (Oct 10, 5:55 PM)
Average57 °F55%30.01 "Hg
* Reported Sep 28 6:15 AM — Oct 13 6:35 AM, Coeur d'Alene, Weather by CustomWeather, © 2015

Note: Actual official high and low records may vary slightly from our data, if they occured in-between our weather recording intervals... More about our weather records


Coeur d'Alene weather history for previous 24 hours

Time TempWeatherWind HumidityBarometerVisibility
6:35 AM
Tue, Oct 13
50 °FOvercast.No wind67%30.10 "Hg10 mi
6:15 AM48 °FOvercast.No wind71%30.10 "Hg10 mi
5:55 AM48 °FOvercast.No wind71%30.09 "Hg10 mi
5:35 AM48 °FOvercast.No wind71%30.09 "Hg10 mi
5:15 AM48 °FOvercast.No wind71%30.09 "Hg10 mi
4:55 AM46 °FOvercast.3 mph76%30.09 "Hg10 mi
4:35 AM46 °FPassing clouds.3 mph71%30.09 "Hg10 mi
4:15 AM46 °FPassing clouds.3 mph71%30.08 "Hg10 mi
3:55 AM46 °FPassing clouds.7 mph71%30.09 "Hg10 mi
3:35 AM48 °FPassing clouds.No wind66%30.09 "Hg10 mi
3:15 AM48 °FPassing clouds.3 mph66%30.09 "Hg10 mi
2:55 AM48 °FPassing clouds.No wind66%30.10 "Hg10 mi
2:35 AM48 °FOvercast.No wind71%30.10 "Hg10 mi
2:15 AM48 °FPassing clouds.No wind66%30.11 "Hg10 mi
1:55 AM48 °FPassing clouds.No wind66%30.10 "Hg10 mi
1:35 AM52 °FPassing clouds.5 mph62%30.10 "Hg10 mi
1:15 AM52 °FOvercast.3 mph62%30.10 "Hg10 mi
12:55 AM52 °FOvercast.No wind62%30.10 "Hg10 mi
12:35 AM52 °FOvercast.6 mph58%30.09 "Hg10 mi
12:15 AM55 °FOvercast.5 mph51%30.10 "Hg10 mi
11:55 PM
Mon, Oct 12
55 °FOvercast.7 mph55%30.09 "Hg10 mi
11:35 PM54 °FPassing clouds.7 mph58%30.09 "Hg10 mi
11:15 PM52 °FPassing clouds.5 mph62%30.09 "Hg10 mi
10:55 PM54 °FPassing clouds.No wind63%30.09 "Hg10 mi
10:35 PM54 °FOvercast.No wind58%30.08 "Hg10 mi
10:15 PM54 °FPassing clouds.No wind58%30.08 "Hg10 mi
9:55 PM52 °FClear.3 mph58%30.07 "Hg10 mi
9:35 PM55 °FPassing clouds.No wind51%30.07 "Hg10 mi
9:15 PM54 °FPassing clouds.5 mph54%30.07 "Hg10 mi
8:55 PM52 °FPassing clouds.No wind58%30.07 "Hg10 mi
8:35 PM52 °FPassing clouds.No wind58%30.07 "Hg10 mi
7:55 PM57 °FClear.No wind44%30.06 "Hg10 mi
7:35 PM59 °FClear.No wind39%30.05 "Hg10 mi
7:15 PM61 °FPassing clouds.3 mph36%30.05 "Hg10 mi
6:55 PM61 °FPartly sunny.3 mph31%30.05 "Hg10 mi
6:35 PM63 °FPartly sunny.No wind34%30.04 "Hg10 mi
6:15 PM63 °FPassing clouds.3 mph34%30.04 "Hg10 mi
5:55 PM64 °FPassing clouds.6 mph32%30.04 "Hg10 mi
5:35 PM66 °FScattered clouds.9 mph28%30.03 "Hg10 mi
5:15 PM66 °FOvercast.12 mph28%30.03 "Hg10 mi
4:55 PM66 °FPartly sunny.13 mph28%30.03 "Hg10 mi
4:35 PM68 °FPartly sunny.10 mph24%30.03 "Hg10 mi
4:15 PM68 °FPartly sunny.14 mph26%30.03 "Hg10 mi
3:55 PM68 °FScattered clouds.12 mph24%30.03 "Hg10 mi
3:15 PM72 °FSunny.14 mph22%30.02 "Hg10 mi
2:55 PM70 °FSunny.16 mph23%30.02 "Hg10 mi
2:15 PM70 °FPassing clouds.7 mph29%30.03 "Hg10 mi
1:55 PM68 °FSunny.6 mph33%30.04 "Hg10 mi
1:35 PM68 °FSunny.No wind33%30.04 "Hg10 mi
1:15 PM66 °FSunny.3 mph35%30.04 "Hg10 mi
12:55 PM66 °FSunny.3 mph35%30.05 "Hg10 mi
12:35 PM64 °FSunny.3 mph37%30.05 "Hg10 mi
12:15 PM64 °FSunny.3 mph37%30.06 "Hg10 mi
11:55 AM64 °FSunny.No wind37%30.06 "Hg10 mi
11:35 AM63 °FSunny.5 mph39%30.06 "Hg10 mi
11:15 AM61 °FSunny.7 mph42%30.06 "Hg10 mi
10:55 AM61 °FSunny.9 mph39%30.06 "Hg10 mi
10:35 AM57 °FSunny.3 mph48%30.07 "Hg10 mi
10:15 AM55 °FSunny.3 mph51%30.07 "Hg10 mi
9:55 AM54 °FSunny.3 mph54%30.07 "Hg10 mi
9:35 AM54 °FSunny.5 mph51%30.07 "Hg10 mi
9:15 AM52 °FSunny.6 mph54%30.08 "Hg10 mi
8:55 AM50 °FSunny.5 mph62%30.08 "Hg10 mi
8:35 AM48 °FSunny.5 mph50%30.07 "Hg10 mi
8:15 AM46 °FPassing clouds.No wind62%30.08 "Hg10 mi
7:55 AM46 °FPassing clouds.6 mph71%30.08 "Hg10 mi
7:35 AM43 °FClear.6 mph71%30.08 "Hg10 mi
7:15 AM43 °FPassing clouds.6 mph71%30.08 "Hg10 mi
Weather by CustomWeather, © 2015

See weather overviewHow to use our weather pages